Home > Weather > Port-Gentil > Past weeks

Flag for Gabon Weather for the Past 2 Weeks in Port-Gentil, Gabon

Now
81 °F

Passing clouds.


Feels Like: 87 °F
Forecast: 81 / 85 °F
Wind: No wind

Location: Libreville Airport

Current Time: Feb 9, 2016 at 12:29:06 AM

Latest Report: Feb 8, 2016 at 11:00 PM


Visibility: N/A

Pressure: 29.95 "Hg

Humidity: 89%

Dew point: 77 °F

Location of Port-GentilLocation

Historic Weather in Port-Gentil — Graph

°F

Port-Gentil Temperature Yesterday

Maximum temperature yesterday: 88 °F (at 4:00 PM)
Minimum temperature yesterday: 75 °F (at 3:00 AM)
Average temperature yesterday: 82 °F

High & Low Weather Summary for the Past Weeks

 TemperatureHumidityPressure
High88 °F (Jan 26, 12:00 PM)100% (Jan 26, 7:00 AM)30.01 "Hg (Jan 26, 7:00 AM)
Low73 °F (Feb 6, 9:51 PM)66% (Jan 28, 1:00 PM)29.77 "Hg (Jan 28, 5:00 PM)
Average83 °F84%29.88 "Hg
* Reported Jan 24 11:00 PM — Feb 8 11:00 PM, Port-Gentil, Weather by CustomWeather, © 2016

Note: Actual official high and low records may vary slightly from our data, if they occured in-between our weather recording intervals... More about our weather records

Advertising

Port-Gentil Weather History for the Previous 24 Hours

 ConditionsComfort  
Time TempWeatherWind HumidityBarometerVisibility
11:00 PM
Mon, Feb 8
81 °FPassing clouds.No wind89%29.95 "HgN/A
10:00 PM81 °FPassing clouds.2 mph94%29.95 "HgN/A
9:00 PM82 °FPassing clouds.No wind84%29.95 "HgN/A
8:00 PM82 °FPassing clouds.6 mph84%29.92 "HgN/A
7:00 PM82 °FPassing clouds.6 mph84%29.89 "HgN/A
6:00 PM84 °FScattered clouds.7 mph84%29.89 "HgN/A
5:00 PM86 °FScattered clouds.9 mph75%29.86 "HgN/A
4:00 PM88 °FPassing clouds.6 mph75%29.86 "HgN/A
3:00 PM86 °FPassing clouds.7 mph75%29.89 "HgN/A
2:00 PM86 °FScattered clouds.7 mph75%29.92 "HgN/A
1:00 PM86 °FScattered clouds.3 mph79%29.95 "HgN/A
12:00 PM86 °FScattered clouds.2 mph75%29.95 "HgN/A
11:00 AM84 °FScattered clouds.5 mph79%29.98 "HgN/A
10:00 AM82 °FPassing clouds.2 mph84%29.98 "HgN/A
9:00 AM79 °FPassing clouds.2 mph94%29.98 "Hg6 mi
8:00 AM79 °FThunderstorms. Passing clouds.2 mph94%29.95 "Hg5 mi
7:00 AM79 °FThunderstorms. Broken clouds.7 mph94%29.95 "Hg4 mi
6:00 AM79 °FThunderstorms. Partly cloudy.10 mph94%29.92 "Hg4 mi
5:00 AM79 °FThunderstorms. Partly cloudy.2 mph94%29.92 "Hg4 mi
4:00 AM77 °FThunderstorms. Partly cloudy.2 mph100%29.89 "Hg3 mi
3:00 AM75 °FThunderstorms. Partly cloudy.10 mph100%29.89 "Hg3 mi
2:00 AM81 °FStrong thunderstorms. Partly cloudy.9 mph89%29.92 "Hg1 mi
1:00 AM84 °FPassing clouds.6 mph84%29.92 "Hg6 mi
12:00 AM84 °FPassing clouds.6 mph84%29.95 "Hg6 mi
Weather by CustomWeather, © 2016

See weather overviewHow to use our weather pages